Home   Weather   Quito   Past weeks

Flag for Ecuador Past Weather in Quito, Ecuador — Yesterday and Last 2 Weeks

Now
57 °F

Broken clouds.


Feels Like: 54 °F
Forecast: N/A
Wind: 13 mph from South

Location: Latacunga Airport

Current Time: Apr 28, 2017 at 6:52:35 pm

Latest Report: Apr 28, 2017 at 6:00 pm


Visibility: N/A

Pressure: 30.36 "Hg (21.69 "Hg at 2826m altitude)

Humidity: 88%

Dew Point: 54 °F

Location of QuitoLocation

Past Weather in Quito — Graph

°F

Quito Temperature Yesterday

Maximum temperature yesterday: 68 °F (at 2:00 pm)
Minimum temperature yesterday: 48 °F (at 6:00 am)
Average temperature yesterday: 56 °F

High & Low Weather Summary for the Past Weeks

 TemperatureHumidityPressure
High70 °F (Apr 17, 3:00 pm)100% (Apr 13, 6:00 pm)30.51 "Hg (Apr 13, 6:00 pm)
Low43 °F (Apr 19, 6:00 am)50% (Apr 22, 1:00 pm)30.27 "Hg (Apr 13, 4:00 pm)
Average56 °F91%30.40 "Hg
* Reported Apr 13 4:00 pm — Apr 28 4:00 pm, Quito, Weather by CustomWeather, © 2017

Note: Actual official high and low records may vary slightly from our data, if they occured in-between our weather recording intervals... More about our weather records

Advertising

Quito Weather History for the Previous 24 Hours

Scroll right to see more
 ConditionsComfort  
Time TempWeatherWind HumidityBarometerVisibility
4:00 pm
Fri, Apr 28
61 °FPartly sunny.21 mph72%30.36 "HgN/A
3:00 pm64 °FPartly sunny.18 mph64%30.36 "HgN/A
2:00 pm61 °FBroken clouds.10 mph77%30.39 "HgN/A
1:00 pm59 °FScattered showers. Partly sunny.13 mph100%30.45 "HgN/A
12:00 pm57 °FScattered showers. Partly sunny.14 mph100%30.45 "HgN/A
11:00 am57 °FPartly sunny.18 mph100%30.45 "HgN/A
10:00 am57 °FPartly sunny.21 mph100%30.45 "HgN/A
8:00 am52 °FBroken clouds.16 mph100%30.45 "Hg5 mi
7:00 am52 °FBroken clouds.15 mph100%30.42 "Hg5 mi
6:00 am52 °FPartly cloudy.12 mph100%30.39 "Hg5 mi
5:00 am52 °FPassing clouds.10 mph100%30.39 "Hg5 mi
4:00 am52 °FPassing clouds.12 mph100%30.36 "HgN/A
3:00 am52 °FPassing clouds.6 mph100%30.39 "HgN/A
2:00 am52 °FPassing clouds.6 mph100%30.39 "HgN/A
1:00 am52 °FPassing clouds.7 mph100%30.42 "HgN/A
12:00 am54 °FPassing clouds.6 mph100%30.42 "HgN/A
11:00 pm
Thu, Apr 27
54 °FPassing clouds.9 mph100%30.45 "HgN/A
10:00 pm52 °FPassing clouds.8 mph100%30.42 "HgN/A
9:00 pm54 °FPassing clouds.8 mph100%30.42 "HgN/A
8:00 pm54 °FPassing clouds.2 mph100%30.39 "HgN/A
7:00 pm54 °FPassing clouds.2 mph100%30.36 "HgN/A
6:00 pm54 °FScattered clouds.2 mph100%30.33 "HgN/A
Weather by CustomWeather, © 2017

See weather overviewHow to use our weather pages